| time (UTC) | temp F | wind direction | speed MPH | gust MPH | rain 1hr in | rain 24hr in | rain mn in | humidity % | barometer mb |
| 20260507051512 | 45 | 281 | 4.0 | 6.0 | 0.00 | 0.00 | 0.00 | 64 | 1012.6 |
| 20260507050009 | 45 | 290 | 4.0 | 6.0 | 0.00 | 0.00 | 0.00 | 62 | 1012.6 |
| 20260507044522 | 45 | 283 | 3.0 | 5.0 | 0.00 | 0.00 | 0.00 | 62 | 1012.5 |
| 20260507043005 | 45 | 286 | 2.0 | 5.0 | 0.00 | 0.00 | 0.00 | 63 | 1012.6 |
| 20260507041502 | 46 | 288 | 2.0 | 4.0 | 0.00 | 0.00 | 0.00 | 63 | 1012.5 |
| 20260507040059 | 47 | 288 | 2.0 | 5.0 | 0.00 | 0.00 | 0.00 | 60 | 1012.5 |
| 20260507034613 | 47 | 271 | 3.0 | 5.0 | 0.00 | 0.00 | 0.00 | 60 | 1012.5 |
| 20260507033058 | 47 | 270 | 4.0 | 6.0 | 0.00 | 0.00 | 0.00 | 60 | 1012.5 |
| 20260507031558 | 47 | 269 | 4.0 | 8.0 | 0.00 | 0.00 | 0.00 | 59 | 1012.5 |
| 20260507024559 | 47 | 273 | 5.0 | 7.0 | 0.00 | 0.00 | 0.00 | 58 | 1012.5 |
| 20260507023057 | 47 | 267 | 3.0 | 5.0 | 0.00 | 0.00 | 0.00 | 60 | 1012.5 |
| 20260507021557 | 48 | 259 | 3.0 | 5.0 | 0.00 | 0.00 | 0.00 | 54 | 1012.4 |
| 20260507020055 | 49 | 259 | 3.0 | 6.0 | 0.00 | 0.00 | 0.00 | 51 | 1012.3 |
| 20260507014558 | 49 | 236 | 3.0 | 6.0 | 0.00 | 0.00 | 0.00 | 51 | 1012.1 |
| 20260507013101 | 49 | 243 | 2.0 | 5.0 | 0.00 | 0.00 | 0.00 | 50 | 1012.1 |
| 20260507011556 | 50 | 249 | 3.0 | 7.0 | 0.00 | 0.00 | 0.00 | 47 | 1012.0 |
| 20260507010054 | 50 | 261 | 4.0 | 7.0 | 0.00 | 0.00 | 0.00 | 45 | 1012.0 |
| 20260507004553 | 51 | 239 | 3.0 | 8.0 | 0.00 | 0.00 | 0.00 | 45 | 1011.9 |
| 20260507003053 | 51 | 245 | 5.0 | 12.0 | 0.00 | 0.00 | 0.00 | 44 | 1011.8 |
| 20260507001552 | 51 | 259 | 7.0 | 10.0 | 0.00 | 0.00 | 0.00 | 43 | 1011.7 |
| 20260507000054 | 52 | 267 | 7.0 | 11.0 | 0.00 | 0.00 | 0.00 | 43 | 1011.5 |
| 20260506234555 | 52 | 261 | 6.0 | 13.0 | 0.00 | 0.00 | 0.00 | 43 | 1011.6 |
| 20260506233051 | 52 | 264 | 5.0 | 12.0 | 0.00 | 0.00 | 0.00 | 43 | 1011.6 |
| 20260506231550 | 52 | 272 | 8.0 | 13.0 | 0.00 | 0.00 | 0.00 | 41 | 1011.6 |
| 20260506230049 | 53 | 265 | 7.0 | 12.0 | 0.00 | 0.00 | 0.00 | 41 | 1011.4 |
| 20260506224601 | 53 | 269 | 8.0 | 14.0 | 0.00 | 0.00 | 0.00 | 40 | 1011.5 |
| 20260506223049 | 53 | 288 | 10.0 | 16.0 | 0.00 | 0.00 | 0.00 | 42 | 1011.4 |
| 20260506221547 | 53 | 273 | 9.0 | 13.0 | 0.00 | 0.00 | 0.00 | 42 | 1011.5 |
| 20260506220048 | 53 | 257 | 6.0 | 12.0 | 0.00 | 0.00 | 0.00 | 43 | 1011.5 |
| 20260506214604 | 53 | 275 | 8.0 | 12.0 | 0.00 | 0.00 | 0.00 | 43 | 1011.4 |
| 20260506213047 | 53 | 263 | 7.0 | 13.0 | 0.00 | 0.00 | 0.00 | 45 | 1011.4 |
| 20260506211545 | 53 | 275 | 7.0 | 11.0 | 0.00 | 0.00 | 0.00 | 43 | 1011.5 |
| 20260506210044 | 53 | 279 | 4.0 | 12.0 | 0.00 | 0.00 | 0.00 | 43 | 1011.4 |
| 20260506204543 | 53 | 246 | 6.0 | 9.0 | 0.00 | 0.00 | 0.00 | 46 | 1011.5 |
| 20260506203046 | 52 | 305 | 3.0 | 13.0 | 0.00 | 0.00 | 0.00 | 45 | 1011.5 |
| 20260506201542 | 52 | 212 | 6.0 | 10.0 | 0.00 | 0.00 | 0.00 | 48 | 1011.7 |
| 20260506200042 | 52 | 256 | 5.0 | 11.0 | 0.00 | 0.00 | 0.00 | 47 | 1011.7 |
| 20260506194556 | 52 | 236 | 5.0 | 11.0 | 0.00 | 0.00 | 0.00 | 48 | 1011.8 |
| 20260506193040 | 52 | 195 | 5.0 | 10.0 | 0.00 | 0.00 | 0.00 | 48 | 1012.0 |
| 20260506191540 | 51 | 239 | 3.0 | 7.0 | 0.00 | 0.00 | 0.00 | 49 | 1012.1 |
| 20260506190043 | 51 | 336 | 3.0 | 11.0 | 0.00 | 0.00 | 0.00 | 54 | 1012.1 |
| 20260506184539 | 51 | 257 | 5.0 | 9.0 | 0.00 | 0.00 | 0.00 | 52 | 1012.3 |
| 20260506183039 | 52 | 259 | 3.0 | 12.0 | 0.00 | 0.00 | 0.00 | 49 | 1012.1 |
| 20260506181539 | 51 | 11 | 3.0 | 10.0 | 0.00 | 0.00 | 0.00 | 53 | 1012.1 |
| 20260506180042 | 51 | 316 | 3.0 | 11.0 | 0.00 | 0.00 | 0.00 | 51 | 1012.2 |
| 20260506174536 | 50 | 296 | 5.0 | 10.0 | 0.00 | 0.00 | 0.00 | 53 | 1012.4 |
| 20260506173034 | 50 | 331 | 7.0 | 13.0 | 0.00 | 0.00 | 0.00 | 52 | 1012.6 |
| 20260506171549 | 50 | 324 | 5.0 | 15.0 | 0.00 | 0.00 | 0.00 | 50 | 1012.8 |
| 20260506170038 | 50 | 332 | 5.0 | 14.0 | 0.00 | 0.00 | 0.00 | 49 | 1012.6 |
| 20260506164534 | 51 | 313 | 9.0 | 18.0 | 0.00 | 0.00 | 0.00 | 50 | 1012.5 |
| 20260506163034 | 49 | 351 | 5.0 | 10.0 | 0.00 | 0.00 | 0.00 | 56 | 1012.6 |
| 20260506161527 | 49 | 350 | 5.0 | 8.0 | 0.00 | 0.00 | 0.00 | 60 | 1012.6 |
| 20260506160030 | 48 | 229 | 2.0 | 8.0 | 0.00 | 0.00 | 0.00 | 60 | 1012.8 |
| 20260506154525 | 48 | 43 | 4.0 | 10.0 | 0.00 | 0.00 | 0.00 | 61 | 1012.8 |
| 20260506153022 | 48 | 28 | 2.0 | 5.0 | 0.00 | 0.00 | 0.00 | 66 | 1012.8 |
| 20260506151530 | 48 | 360 | 5.0 | 8.0 | 0.00 | 0.00 | 0.00 | 68 | 1012.7 |
| 20260506150019 | 46 | 345 | 1.0 | 8.0 | 0.00 | 0.00 | 0.00 | 68 | 1012.6 |
| 20260506144518 | 45 | 5 | 4.0 | 6.0 | 0.00 | 0.00 | 0.00 | 69 | 1012.7 |
| 20260506143020 | 45 | 34 | 2.0 | 6.0 | 0.00 | 0.00 | 0.00 | 69 | 1012.6 |
| 20260506141515 | 44 | 27 | 0.0 | 4.0 | 0.00 | 0.00 | 0.00 | 69 | 1012.4 |
| 20260506140021 | 44 | 5 | 2.0 | 7.0 | 0.00 | 0.00 | 0.00 | 70 | 1012.2 |
| 20260506134515 | 43 | 58 | 2.0 | 7.0 | 0.00 | 0.00 | 0.00 | 69 | 1012.2 |
| 20260506133027 | 43 | 348 | 7.0 | 10.0 | 0.00 | 0.00 | 0.00 | 67 | 1012.3 |
| 20260506131517 | 43 | 340 | 7.0 | 10.0 | 0.00 | 0.00 | 0.00 | 65 | 1012.1 |
| 20260506130011 | 42 | 5 | 7.0 | 9.0 | 0.00 | 0.00 | 0.00 | 60 | 1012.0 |
| 20260506124508 | 42 | 30 | 4.0 | 10.0 | 0.00 | 0.00 | 0.00 | 56 | 1011.8 |
| 20260506123007 | 41 | 29 | 6.0 | 10.0 | 0.00 | 0.00 | 0.00 | 54 | 1011.5 |
| 20260506121506 | 41 | 57 | 7.0 | 10.0 | 0.00 | 0.00 | 0.00 | 48 | 1011.3 |
| 20260506120004 | 41 | 49 | 6.0 | 10.0 | 0.00 | 0.00 | 0.00 | 44 | 1011.1 |
| 20260506114604 | 42 | 29 | 8.0 | 11.0 | 0.00 | 0.00 | 0.00 | 49 | 1010.6 |
| 20260506113101 | 41 | 55 | 6.0 | 9.0 | 0.00 | 0.00 | 0.00 | 53 | 1010.5 |
| 20260506111605 | 41 | 74 | 4.0 | 7.0 | 0.00 | 0.00 | 0.00 | 48 | 1010.4 |
| 20260506110053 | 40 | 118 | 3.0 | 5.0 | 0.00 | 0.00 | 0.00 | 52 | 1010.3 |
| 20260506104557 | 40 | 146 | 1.0 | 4.0 | 0.00 | 0.00 | 0.00 | 53 | 1010.1 |
| 20260506103057 | 40 | 155 | 0.0 | 0.0 | 0.00 | 0.00 | 0.00 | 61 | 1009.8 |
| 20260506101550 | 40 | 167 | 0.0 | 0.0 | 0.00 | 0.00 | 0.00 | 65 | 1009.6 |
| 20260506100041 | 42 | 43 | 0.0 | 6.0 | 0.00 | 0.00 | 0.00 | 68 | 1009.2 |
| 20260506094539 | 41 | 11 | 0.0 | 0.0 | 0.00 | 0.00 | 0.00 | 68 | 1009.0 |
| 20260506093036 | 42 | 11 | 0.0 | 2.0 | 0.00 | 0.00 | 0.00 | 69 | 1008.8 |
| 20260506091535 | 43 | 11 | 2.0 | 5.0 | 0.00 | 0.00 | 0.00 | 70 | 1008.6 |
| 20260506090032 | 42 | 11 | 3.0 | 5.0 | 0.00 | 0.00 | 0.00 | 70 | 1008.7 |
| 20260506084537 | 43 | 309 | 3.0 | 4.0 | 0.00 | 0.00 | 0.00 | 68 | 1008.4 |
| 20260506083029 | 44 | 300 | 3.0 | 5.0 | 0.00 | 0.00 | 0.00 | 67 | 1008.8 |
| 20260506081527 | 44 | 296 | 3.0 | 5.0 | 0.00 | 0.00 | 0.00 | 67 | 1008.6 |
| 20260506073020 | 45 | 296 | 2.0 | 3.0 | 0.00 | 0.00 | 0.00 | 65 | 1008.5 |
| 20260506071518 | 45 | 296 | 2.0 | 4.0 | 0.00 | 0.00 | 0.00 | 64 | 1008.3 |
| 20260506061513 | 46 | 295 | 1.0 | 3.0 | 0.00 | 0.00 | 0.00 | 64 | 1008.6 |